User: anonymous   Login
Location: Corralito
(10.2667°N, 66.9500°W)
Time: 00:32:50
(UTC+00:00)
Language:

Cosmos 2333 - Orbit

View from above orbital plane
View from above orbital plane
View from above satellite
View from above satellite

Ground track
Ground track

The orbit data is extracted from the following two-line orbital elements,

1 24297U 96051A   24106.54694220 -.00000148  00000-0 -52847-4 0  9995
2 24297  70.9043 203.9898 0021520  60.2870 300.0389 14.13546744424272
Epoch (UTC): 15 April 2024 13:07:35
Eccentricity: 0.0021520
inclination: 70.9043°
perigee height: 832 km
apogee height: 863 km
right ascension of ascending node: 203.9898°
argument of perigee: 60.2870°
revolutions per day: 14.13546744
mean anomaly at epoch: 300.0389°
orbit number at epoch: 42427

The dashed part of the orbit path shows where the satellite is in the earth's shadow,  

DLR